Terug naar catalogus

COSMOS 2337

ActiefNavigatiePO
NORAD 24725·PAYLOAD·🇷🇺 Russia

Gelanceerd Feb 14, 1997 vanaf Plesetsk Cosmodrome

Loading…

Volgende Passages (komende 24 uur)

TLE

VersSource: Space-Track

Epoch: Sep 14, 2026, 20:59 UTC

1 24725U 97006A   26257.87492158  .00000010  00000-0 -39906-6 0  9993
2 24725  82.6074 223.3298 0007867 284.2627  75.7589 12.60725608361151

Volg COSMOS 2337 in realtime met AllMySat

Download on the App Store